Location: ??
(35.4824°N, 139.4679°E)
Time: 07:18:14
(UTC+00:00)

Cosmos 2322 Rocket - Pass Details

Date: 29 October 2020
Orbit: 833 x 851 km, 71.0° (Epoch: 03 December)

Event Time Altitude Azimuth Distance (km) Brightness Sun altitude
Rises 20:10:59 0° 346° (NNW) 3,413 5.1 -10.9°
Reaches altitude 10° 20:13:35 10° 354° (N) 2,471 4.5 -10.4°
Maximum altitude 20:18:55 41° 63° (ENE) 1,211 3.5 -9.3°
Drops below altitude 10° 20:24:11 10° 133° (SE) 2,447 5.6 -8.3°
Sets 20:26:45 0° 140° (SE) 3,375 6.2 -7.8°
